Location: Gro�wechsungen
(51.4926°N, 10.6901°E)
Time: 11:00:03
(UTC+00:00)

Cosmos 1844 Rocket - Pass Details

Date: 18 September 2020
Orbit: 823 x 846 km, 71.0° (Epoch: 25 October)

Event Time Altitude Azimuth Distance (km) Brightness Sun altitude
Rises 17:58:19 0° 151° (SSE) 3,348 5.4 -6.1°
Reaches altitude 10° 18:01:55 10° 127° (SE) 2,424 4.5 -6.7°
Maximum altitude 18:04:41 14° 97° (E) 2,155 4.2 -7.1°
Drops below altitude 10° 18:07:26 10° 67° (ENE) 2,438 4.6 -7.5°
Sets 18:11:04 0° 43° (NE) 3,382 5.5 -8.1°
